sat.trackr.live / text

‹ back to catalog

TIANQI-12

NORAD 48426 · 2021-039D

PAYLOAD ACTIVE UNKNOWN

§ Identity

Operator
Country
PRC
Launch date
2021-05-06
Launch site
XICLF
Launch vehicle
Mass (kg)
RCS (m²)

External: N2YO · Heavens-Above · Gunter

§ Orbital elements

Epoch: 2026-09-04T04:42:48.339648Z

Period
95.19 min
Inclination
34.9975°
Eccentricity
0.0005057
Mean motion
15.12802922 rev/d
Perigee alt
524.2 km
Apogee alt
531.1 km
Semi-major
6,905.8 km
B*
1.8252e-4
RAAN
196.8476°
Arg perigee
277.4426°
Mean anomaly
82.5711°
Rev number
29,219

§ Raw data

TIANQI-121 48426U 21039D   26247.19639282  .00003245  00000+0  18252-3 0  99942 48426  34.9975 196.8476 0005057 277.4426  82.5711 15.12802922292192

JSON: /api/v1/satellites/48426 · /tle

For live sub-satellite position, see the globe view (requires WebGL).

§ Visibility from observer

Set your observer location to see the next 7 days of passes ≥ 10°. The values pass through the URL so the page stays shareable.

No JS? Fill the form by hand. The geolocation button needs JavaScript.